Regional Weather Roundup
Issued by NWS

Home | Current Version | Previous Version | Graphics & Text | Print | Product List | Glossary On
Versions: 1 2 3 4 5 6 7 8 9 10 11 12 13 14 15 16 17 18 19 20 21 22 23 24 25 26 27 28 29 30 31 32 33 34 35 36 37 38 39 40 41 42 43 44 45 46 47 48 49 50
000
ASUS43 KLSX 292357
RWRMO

WEATHER SUMMARY FOR MISSOURI
NATIONAL WEATHER SERVICE SPRINGFIELD MO
700 PM CDT THU SEP 29 2016

NOTE: "FAIR" INDICATES FEW OR NO CLOUDS BELOW 12,000 FEET WITH NO
       SIGNIFICANT WEATHER AND/OR OBSTRUCTIONS TO VISIBILITY.
       CURRENT SKY AND/OR WEATHER CONDITIONS ARE NOT AVAILABLE FOR
       CHILLICOTHE AND FARMINGTON.

MOZ001>031-035>038-043-044-053-054-300100-
...NORTHERN AND WESTERN MISSOURI...

CITY           SKY/WX    TMP DP  RH WIND       PRES   REMARKS
KANSAS CTY INT CLEAR     63  47  55 N6        30.28S
6HR MIN TEMP:  63; 6HR MAX TEMP:  72;

LEE`S SUMMIT   CLEAR     66  48  52 NW6       30.28R
6HR MIN TEMP:  66; 6HR MAX TEMP:  72;

ST JOSEPH      CLEAR     65  49  56 N6        30.29S
6HR MIN TEMP:  65; 6HR MAX TEMP:  74;

CHILLICOTHE      N/A     65  53  65 CALM      30.27S
6HR MIN TEMP:  65; 6HR MAX TEMP:  75;


$$
MOZ066>068-077>081-088>096-101>105-300100-
...SOUTHWEST MISSOURI...

CITY           SKY/WX    TMP DP  RH WIND       PRES   REMARKS
SPRINGFIELD    CLEAR     63  48  58 NW6       30.23S
6HR MIN TEMP:  63; 6HR MAX TEMP:  73;

JOPLIN         CLEAR     65  49  56 N6        30.26S
6HR MIN TEMP:  65; 6HR MAX TEMP:  72;

BRANSON        CLEAR     66  46  48 N9        30.23R

$$
MOZ032>034-039>042-045>050-055>058-069>072-300100-
...CENTRAL MISSOURI...

CITY           SKY/WX    TMP DP  RH WIND       PRES   REMARKS
COLUMBIA       NOT AVBL
JEFFERSON CITY MOCLDY    70  52  52 NW3       30.19R
6HR MIN TEMP:  70; 6HR MAX TEMP:  76;

ROLLA          PTCLDY    65  53  65 NW5       30.19R
6HR MIN TEMP:  65; 6HR MAX TEMP:  73; 6HR PCP: TRACE;

SEDALIA        CLEAR     67  49  52 N7        30.24S
6HR MIN TEMP:  67; 6HR MAX TEMP:  77;


$$
MOZ051-052-059>065-300100-
...EAST CENTRAL MISSOURI...

CITY           SKY/WX    TMP DP  RH WIND       PRES   REMARKS
ST LOUIS INTL  NOT AVBL

$$
MOZ072>076-082>087-097>100-106>115-300100-
...SOUTH CENTRAL AND SOUTHEAST MISSOURI...

CITY           SKY/WX    TMP DP  RH WIND       PRES   REMARKS
CAPE GIRARDEAU CLOUDY    59  57  93 NW6       30.15S
6HR MIN TEMP:  59; 6HR MAX TEMP:  69; 6HR PCP:  0.02;

POPLAR BLUFF   CLOUDY    64  56  75 N6        30.15F
6HR MIN TEMP:  64; 6HR MAX TEMP:  72;

WEST PLAINS    CLEAR     65  51  60 NW6       30.21R
6HR MIN TEMP:  65; 6HR MAX TEMP:  75;


$$



USA.gov is the U.S. government's official web portal to all federal, state and local government web resources and services.